Hof Plauen, Germany

6:04 AM CEST on May 29, 2017 (GMT +0200)
Hof-Plauen

Weather History for EDQM - September, 2013

Change the Weather History Date:

Monday, September 9, 2013

  Actual Average Record
Temperature  
Mean Temperature 52 °F -  
Max Temperature 59 °F 57 °F 78 °F (1999)
Min Temperature 44 °F 43 °F 37 °F (2006)
Degree Days  
Heating Degree Days 12    
Growing Degree Days 2 (Base 50)    
Moisture  
Dew Point 48 °F    
Average Humidity 82    
Maximum Humidity 100    
Minimum Humidity 58    
Precipitation  
Precipitation 0.04 in - - ()
Sea Level Pressure  
Sea Level Pressure 30.04 in    
Wind  
Wind Speed 7 mph ()    
Max Wind Speed 20 mph    
Max Gust Speed -    
Visibility 5.5 miles    
Events Rain    
Averages and records for this station are not official NWS values.
T = Trace of Precipitation, MM = Missing Value Source: Averaged Metar Reports

Daily Weather History Graph

Daily Weather History Graph

Search for Another Location

Airport or City:

Trip Planner

Search our weather history database for the weather conditions in past years. The results will help you decide how hot, cold, wet, or windy it might be!

Date:

Astronomy

Sep. 09, 2013 Rise Set
Actual Time 6:39 AM CEST 7:39 PM CEST
Civil Twilight 6:05 AM CEST 8:12 PM CEST
Nautical Twilight 5:25 AM CEST 8:52 PM CEST
Astronomical Twilight 4:43 AM CEST 9:34 PM CEST
Moon 11:12 AM CEST (9/9) 9:12 PM CEST (9/9)
Length of Visible Light 14h 06m
Length of Day
13h 00m
Waxing Crescent, 16% of the Moon is Illuminated
Sep 9
Waxing Crescent
Sep 12
First Quarter
Sep 19
Full
Sep 27
Last Quarter
Oct 5
New

Hourly Weather History & Observations

Time (CEST) Temp. Windchill Dew Point Humidity Pressure Visibility Wind Dir Wind Speed Gust Speed Precip Events Conditions
12:00 AM 59 °F - 58 °F 97% 30.00 in 3 mi NNW 4.5 mph - - Rain Light Rain
12:20 AM 59.0 °F - 57.2 °F 94% 30.04 in 2.8 mi Variable 1.2 mph - N/A   Drizzle
12:50 AM 59.0 °F - 57.2 °F 94% 30.04 in 1.6 mi NNE 4.6 mph - N/A Rain Heavy Rain
1:00 AM 58 °F - 57 °F 94% 29.99 in 1 mi NNE 6.7 mph - - Rain Heavy Rain
1:20 AM 57.2 °F - 53.6 °F 88% 30.04 in 1.6 mi NNE 5.8 mph - N/A Rain Heavy Rain
1:50 AM 55.4 °F - 51.8 °F 88% 30.04 in 1.3 mi NNE 6.9 mph - N/A Rain Heavy Rain
2:00 AM 55 °F - 54 °F 96% 29.99 in 1 mi North 6.7 mph - - Rain Heavy Rain
2:20 AM 55.4 °F - 51.8 °F 88% 30.01 in 1.6 mi North 5.8 mph - N/A Rain Rain
2:50 AM 53.6 °F - 51.8 °F 94% 30.01 in - NNW 4.6 mph - N/A Rain Rain
3:00 AM 54 °F - 53 °F 95% 29.98 in 3 mi North 4.5 mph - - Rain Rain
3:20 AM 53.6 °F - 51.8 °F 94% 30.01 in 1.2 mi NNW 4.6 mph - N/A Rain Heavy Rain
3:50 AM 53.6 °F - 51.8 °F 94% 29.98 in 2.5 mi NNW 4.6 mph - N/A Rain Rain
4:00 AM 53 °F - 53 °F 100% 29.96 in 3 mi NNW 4.5 mph - - Rain Rain
4:20 AM 53.6 °F - 50.0 °F 88% 29.98 in 5.6 mi NNW 5.8 mph - N/A Rain Rain
4:50 AM 51.8 °F - 50.0 °F 94% 29.98 in 5.0 mi NW 4.6 mph - N/A Rain Rain
5:20 AM 51.8 °F - 50.0 °F 94% 29.98 in 5.0 mi NW 3.5 mph - N/A Rain Rain
5:50 AM 51.8 °F - 50.0 °F 94% 29.98 in 5.6 mi NW 3.5 mph - N/A Rain Rain
6:00 AM 52 °F - 51 °F 97% 29.96 in 5 mi NW 4.5 mph - - Rain Rain
6:20 AM 51.8 °F - 50.0 °F 94% 29.98 in 6.2 mi WNW 3.5 mph - N/A Rain Rain
6:50 AM 51.8 °F - 50.0 °F 94% 29.98 in 6.2 mi NNW 3.5 mph - N/A Rain Light Rain
7:00 AM 52 °F - 51 °F 95% 29.97 in 9 mi NNW 6.7 mph - - Rain Light Rain
7:20 AM 51.8 °F - 50.0 °F 94% 30.01 in 6.2 mi West 4.6 mph - N/A Rain Light Rain
7:50 AM 53.6 °F - 50.0 °F 88% 30.01 in 6.2 mi WNW 3.5 mph - N/A   Light Drizzle
8:00 AM 52 °F - 51 °F 95% 29.99 in 12 mi WNW 4.5 mph - - Rain Light Rain
8:20 AM 51.8 °F - 50.0 °F 94% 30.01 in 2.8 mi WNW 3.5 mph - N/A Rain Heavy Rain
8:50 AM 51.8 °F - 50.0 °F 94% 30.04 in 6.2 mi West 8.1 mph - N/A   Mostly Cloudy
9:00 AM 52 °F - 51 °F 95% 30.00 in 9 mi West 6.7 mph - - Rain Heavy Rain
9:20 AM 53.6 °F - 50.0 °F 88% 30.04 in 6.2 mi WSW 15.0 mph - N/A   Overcast
9:50 AM 53.6 °F - 50.0 °F 88% 30.04 in 6.2 mi WSW 13.8 mph - N/A   Mostly Cloudy
10:00 AM 54 °F - 51 °F 85% 30.01 in 37 mi West 13.4 mph - - Rain Light Rain
10:20 AM 53.6 °F - 50.0 °F 88% 30.06 in 6.2 mi WSW 16.1 mph - N/A   Overcast
10:50 AM 55.4 °F - 48.2 °F 77% 30.06 in 6.2 mi West 12.7 mph - N/A   Mostly Cloudy
11:20 AM 55.4 °F - 48.2 °F 77% 30.04 in 6.2 mi WSW 11.5 mph - N/A   Mostly Cloudy
11:50 AM 55.4 °F - 48.2 °F 77% 30.06 in 6.2 mi WSW 13.8 mph - N/A Rain Light Rain
12:00 PM 54 °F - 49 °F 76% 30.02 in 16 mi WSW 13.4 mph - - Rain Light Rain Showers
12:20 PM 57.2 °F - 48.2 °F 72% 30.06 in 6.2 mi WSW 18.4 mph - N/A   Overcast
12:50 PM 53.6 °F - 46.4 °F 77% 30.06 in 6.2 mi WSW 16.1 mph - N/A Rain Light Rain
1:00 PM 55 °F - 47 °F 67% 30.03 in 31 mi West 11.2 mph - - Rain Light Rain Showers
1:20 PM 57.2 °F - 46.4 °F 67% 30.06 in 6.2 mi WSW 17.3 mph - N/A   Scattered Clouds
1:50 PM 55.4 °F - 44.6 °F 67% 30.06 in 6.2 mi WSW 19.6 mph - N/A   Mostly Cloudy
2:00 PM 54 °F - 47 °F 71% 30.05 in 47 mi West 11.2 mph - - Rain Light Rain
2:20 PM 53.6 °F - 48.2 °F 82% 30.06 in 6.2 mi WSW 16.1 mph - N/A   Mostly Cloudy
2:50 PM 53.6 °F - 46.4 °F 77% 30.09 in 6.2 mi WSW 15.0 mph - N/A Rain Light Rain
3:00 PM 54 °F - 46 °F 67% 30.06 in 37 mi West 15.7 mph - - Rain Light Rain
3:20 PM 55.4 °F - 48.2 °F 77% 30.09 in 6.2 mi WSW 16.1 mph - N/A   Scattered Clouds
3:50 PM 55.4 °F - 42.8 °F 63% 30.09 in 6.2 mi West 13.8 mph - N/A   Mostly Cloudy
4:00 PM 55 °F - 47 °F 66% 30.05 in 44 mi West 11.2 mph - - Rain Light Rain Showers
4:20 PM 55.4 °F - 42.8 °F 63% 30.06 in - West 11.5 mph - N/A   Clear
4:50 PM 55.4 °F - 42.8 °F 63% 30.09 in 6.2 mi WSW 12.7 mph - N/A   Partly Cloudy
5:20 PM 57.2 °F - 42.8 °F 59% 30.09 in 6.2 mi WSW 12.7 mph - N/A   Scattered Clouds
5:50 PM 55.4 °F - 44.6 °F 67% 30.09 in - WSW 9.2 mph - N/A   Clear
6:00 PM 57 °F - 46 °F 58% 30.05 in 47 mi West 6.7 mph - -   Partly Cloudy
6:20 PM 55.4 °F - 44.6 °F 67% 30.09 in 6.2 mi WSW 6.9 mph - N/A   Overcast
6:50 PM 55.4 °F - 44.6 °F 67% 30.09 in 6.2 mi SW 9.2 mph - N/A   Partly Cloudy
7:00 PM 56 °F - 46 °F 60% 30.05 in 47 mi WSW 6.7 mph - -   Scattered Clouds
7:20 PM 53.6 °F - 42.8 °F 67% 30.09 in - SW 8.1 mph - N/A   Clear
7:50 PM 50.0 °F - 42.8 °F 76% 30.09 in - SW 5.8 mph - N/A   Clear
8:20 PM 50.0 °F - 42.8 °F 76% 30.09 in - SSW 5.8 mph - N/A   Clear
8:50 PM 48.2 °F - 42.8 °F 82% 30.09 in 6.2 mi SSW 5.8 mph - N/A   Unknown
9:00 PM 51 °F - 45 °F 74% 30.07 in 44 mi SSW 6.7 mph - -   Clear
9:20 PM 48.2 °F - 42.8 °F 82% 30.09 in 6.2 mi SSW 6.9 mph - N/A   Unknown
9:50 PM 48.2 °F - 42.8 °F 82% 30.09 in 6.2 mi SSW 4.6 mph - N/A   Unknown
10:00 PM 51 °F - 45 °F 73% 30.07 in 31 mi SSW 6.7 mph - -  
10:20 PM 46.4 °F 44.3 °F 42.8 °F 87% 30.09 in 6.2 mi SSW 4.6 mph - N/A   Partly Cloudy
10:50 PM 46.4 °F 45.2 °F 42.8 °F 87% 30.06 in 6.2 mi South 3.5 mph - N/A   Unknown
11:20 PM 46.4 °F 45.2 °F 42.8 °F 87% 30.06 in 6.2 mi SSE 3.5 mph - N/A   Partly Cloudy
11:50 PM 44.6 °F 43.1 °F 41.0 °F 87% 30.06 in 6.2 mi South 3.5 mph - N/A   Scattered Clouds